Stations météo

Publicité
Le Havre/Octeville, France (7046): Température de l'air & dewpoint: 18.02.2020 20:00:00 - 24.02.2020 20:00:00 (CET)Le Havre/Octeville, France (7046): Vitesse du vent & gusts: 18.02.2020 20:00:00 - 24.02.2020 20:00:00 (CET)Le Havre/Octeville, France (7046): Direction du vent: 18.02.2020 20:00:00 - 24.02.2020 20:00:00 (CET)Le Havre/Octeville, France (7046): reduced air pressure: 18.02.2020 20:00:00 - 24.02.2020 20:00:00 (CET)Le Havre/Octeville, France (7046): visibility: 18.02.2020 20:00:00 - 24.02.2020 20:00:00 (CET)Le Havre/Octeville, France (7046): Quantités de précipitations: 18.02.2020 20:00:00 - 24.02.2020 20:00:00 (CET)
Date & Time tt [°C] td [°C] ff [km/h] ff [knt] fx [km/h] fx [knt] dd ppp [hPa] vv [km] rr [mm]
24.02.2020 20:00:00 9,6 9,3 29 15 45 24 SW 1012,0 10 1,0
24.02.2020 19:00:00 9,5 9,2 29 15 53 29 SW 1012,3 6 0,8
24.02.2020 18:00:00 9,6 9,0 34 18 52 28 WSW 1012,4 3,1 0,6
24.02.2020 17:00:00 10,1 8,4 40 21 65 35 WSW 1012,6 7 0,0
24.02.2020 16:00:00 11,2 8,1 33 18 48 26 WSW 1013,1 37 0,0
24.02.2020 15:00:00 11,6 8,1 37 20 62 33 WSW 1013,8 60 0,0
24.02.2020 14:00:00 11,1 8,1 34 18 53 29 WSW 1015,2 47 0,0
24.02.2020 13:00:00 11,4 8,6 31 17 54 29 WSW 1016,5 60 0,0
24.02.2020 12:00:00 11,1 8,5 38 20 67 36 WSW 1016,8 33 0,0
24.02.2020 11:00:00 10,9 9,0 32 18 58 31 WSW 1017,3 40 0,0
24.02.2020 10:00:00 10,6 9,5 25 13 45 24 SW 1018,0 50 0,0
24.02.2020 09:00:00 10,6 9,5 30 16 48 26 SW 1018,9 60 0,0
24.02.2020 08:00:00 10,5 9,7 27 14 42 23 WSW 1020,2 49 0,0
24.02.2020 07:00:00 10,7 10,1 29 15 43 23 WSW 1020,6 50 0,0
24.02.2020 06:00:00 11,0 10,4 27 15 44 24 SW 1021,1 48 0,0
24.02.2020 05:00:00 11,2 10,9 24 13 38 20 SW 1021,8 60 0,0
24.02.2020 04:00:00 11,2 11,0 22 12 34 19 SW 1022,6 15 0,0
24.02.2020 03:00:00 11,0 10,8 17 9 29 16 SW 1023,7 3,0 0,2
24.02.2020 02:00:00 9,1 9,0 7 4 15 8 SSW 1024,7 1,6 0,6
24.02.2020 01:00:00 8,8 8,7 7 4 12 6 S 1025,3 1,4 0,8
24.02.2020 00:00:00 8,9 8,8 0 0 8 4 N 1025,8 0,9 0,4
23.02.2020 23:00:00 8,7 8,6 6 4 15 8 WNW 1026,1 0,4 0,2
23.02.2020 22:00:00 8,7 8,6 10 5 27 15 NW 1026,3 0,2 0,0
23.02.2020 21:00:00 9,2 9,1 17 9 36 19 WNW 1025,9 2,5 0,0
23.02.2020 20:00:00 9,9 9,7 25 13 43 23 W 1025,8 0,8 0,4
23.02.2020 19:00:00 10,3 10,1 25 14 45 25 W 1024,8 0,3 0,0
23.02.2020 18:00:00 10,5 10,2 31 17 48 26 W 1024,1 0,3 0,0
23.02.2020 17:00:00 10,7 10,4 36 19 57 31 W 1023,3 4,8 0,0
23.02.2020 16:00:00 10,9 10,4 40 22 60 33 W 1022,7 11 0,0
23.02.2020 15:00:00 11,1 10,3 41 22 65 35 W 1022,5 9 0,0
23.02.2020 14:00:00 11,6 10,3 45 25 69 37 WSW 1021,9 20 0,0
23.02.2020 13:00:00 11,5 10,2 44 24 66 35 WSW 1022,1 20 0,0
23.02.2020 12:00:00 11,3 10,2 53 29 76 41 W 1021,9 17 0,0
23.02.2020 11:00:00 11,4 10,0 44 24 64 34 WSW 1021,8 27 0,0
23.02.2020 10:00:00 11,3 9,7 41 22 61 33 WSW 1021,5 15 0,0
23.02.2020 09:00:00 11,3 9,7 39 21 61 33 SW 1020,8 40 0,0
23.02.2020 08:00:00 11,1 9,7 37 20 59 32 SW 1021,0 60 0,0
23.02.2020 07:00:00 10,9 9,7 38 21 61 33 SW 1021,6 60 0,0
23.02.2020 06:00:00 10,5 9,7 34 18 54 29 SW 1022,2 7 0,0
23.02.2020 05:00:00 10,4 9,5 32 17 52 28 WSW 1023,3 3,4 0,2
23.02.2020 04:00:00 10,4 9,5 31 17 50 27 SW 1023,7 60 0,0
23.02.2020 03:00:00 10,2 9,6 28 15 51 27 SW 1024,7 36 0,0
23.02.2020 02:00:00 10,2 9,7 25 13 42 23 SW 1025,5 15 0,0
23.02.2020 01:00:00 10,1 9,8 23 12 38 20 SW 1026,1 2,4 0,0
23.02.2020 00:00:00 10,0 9,5 23 12 37 20 SW 1026,6 10 0,0
22.02.2020 23:00:00 10,1 9,3 22 12 34 19 SW 1027,2 19 0,0
22.02.2020 22:00:00 10,0 8,9 23 12 39 21 WSW 1027,0 19 0,0
22.02.2020 21:00:00 9,6 8,7 23 12 42 23 WSW 1027,5 14 0,0
22.02.2020 20:00:00 9,7 9,2 31 17 44 24 WSW 1027,8 17 0,0
22.02.2020 19:00:00 9,8 9,5 28 15 45 24 WSW 1027,3 10 0,0
22.02.2020 18:00:00 9,8 9,5 31 17 49 26 WSW 1026,9 0,6 0,0
22.02.2020 17:00:00 9,7 9,2 31 17 46 25 WSW 1026,3 4,3 0,0
22.02.2020 16:00:00 9,7 9,1 33 18 51 27 WSW 1025,9 6 0,0
22.02.2020 15:00:00 9,8 8,6 34 18 53 29 WSW 1026,0 18 0,0
22.02.2020 14:00:00 9,9 8,0 34 19 49 26 WSW 1025,9 20 0,0
22.02.2020 13:00:00 9,9 7,5 29 16 51 27 WSW 1026,0 20 0,0
22.02.2020 12:00:00 9,5 7,1 31 17 49 26 WSW 1025,7 19 0,0
22.02.2020 11:00:00 9,1 6,2 28 15 47 26 WSW 1025,2 20 0,0
22.02.2020 10:00:00 8,5 5,4 29 16 46 25 SW 1025,7 42 0,0
22.02.2020 09:00:00 7,8 4,7 23 12 48 26 SW 1025,4 20 0,0
22.02.2020 08:00:00 7,4 4,0 27 15 46 25 SW 1025,1 48 0,0
22.02.2020 07:00:00 7,0 4,3 21 11 44 24 SW 1025,8 42 0,0
22.02.2020 06:00:00 6,7 4,2 29 15 50 27 SSW 1024,0 40 0,0
22.02.2020 05:00:00 7,4 3,8 32 17 50 27 SW 1023,7 45 0,0
22.02.2020 04:00:00 6,6 4,1 23 13 43 23 SSW 1024,1 42 0,0
22.02.2020 03:00:00 6,6 4,1 23 12 37 20 SW 1026,0 46 0,0
22.02.2020 02:00:00 6,6 3,9 22 12 36 20 SW 1026,3 46 0,0
22.02.2020 01:00:00 6,8 3,9 21 11 33 18 SW 1026,4 50 0,0
22.02.2020 00:00:00 6,9 4,0 19 11 38 21 SW 1027,1 46 0,0
21.02.2020 23:00:00 7,2 4,0 23 12 39 21 SW 1027,2 46 0,0
21.02.2020 22:00:00 7,9 4,1 24 13 42 23 SW 1027,1 50 0,0
21.02.2020 21:00:00 8,3 4,3 21 12 34 18 SSW 1027,6 50 0,0
21.02.2020 20:00:00 8,7 4,3 22 12 40 21 SW 1028,1 55 0,0
21.02.2020 19:00:00 9,1 3,9 28 15 40 21 SW 1028,2 57 0,0
21.02.2020 18:00:00 9,2 4,2 25 13 41 22 WSW 1028,1 44 0,0
21.02.2020 17:00:00 9,1 4,1 24 13 38 21 WSW 1028,0 42 0,0
21.02.2020 16:00:00 9,3 4,7 26 14 41 22 WSW 1028,5 20 0,0
21.02.2020 15:00:00 9,1 3,9 27 15 42 23 WSW 1028,3 49 0,0
21.02.2020 14:00:00 9,6 4,0 27 14 42 23 SW 1029,1 26 0,0
21.02.2020 13:00:00 8,8 3,8 25 14 40 22 WSW 1029,9 24 0,0
21.02.2020 12:00:00 8,4 4,2 25 13 42 23 WSW 1029,9 19 0,0
21.02.2020 11:00:00 7,0 4,3 22 12 38 20 SW 1029,9 20 0,0
21.02.2020 10:00:00 6,4 4,1 23 13 37 20 SW 1029,5 19 0,0
21.02.2020 09:00:00 6,0 4,3 21 11 36 19 SW 1029,0 19 0,0
21.02.2020 08:00:00 5,8 4,3 27 15 39 21 WSW 1028,7 18 0,0
21.02.2020 07:00:00 5,4 3,9 20 11 32 18 WSW 1028,8 16 0,0
21.02.2020 06:00:00 5,2 3,0 18 10 37 20 SW 1028,6 20 0,0
21.02.2020 05:00:00 6,8 3,0 25 13 41 22 W 1028,3 20 0,0
21.02.2020 04:00:00 6,8 3,2 28 15 45 24 W 1027,9 20 0,0
21.02.2020 03:00:00 7,1 2,0 30 16 48 26 W 1027,5 38 0,0
21.02.2020 02:00:00 7,0 2,3 27 15 45 24 W 1026,9 35 0,0
21.02.2020 01:00:00 7,0 2,3 28 15 49 26 W 1026,6 37 0,0
21.02.2020 00:00:00 7,4 0,6 29 16 47 26 NW 1026,0 51 0,0
20.02.2020 23:00:00 7,4 1,0 32 17 58 31 NW 1025,2 51 0,0
20.02.2020 22:00:00 7,4 1,9 31 17 64 35 NW 1023,9 45 0,0
20.02.2020 21:00:00 7,3 1,4 38 21 67 36 NW 1022,7 46 0,0
20.02.2020 20:00:00 7,5 2,8 40 22 69 38 NW 1021,4 20 0,0
20.02.2020 19:00:00 7,0 3,6 39 21 72 39 WNW 1019,9 40 0,0
20.02.2020 18:00:00 7,8 4,4 32 17 61 33 WNW 1018,3 36 0,6
20.02.2020 17:00:00 6,9 5,0 37 20 89 48 NNW 1016,8 6 2,8
20.02.2020 16:00:00 10,1 7,9 44 24 66 36 SW 1012,8 5 0,4
20.02.2020 15:00:00 11,4 6,5 35 19 60 33 SW 1012,5 42 0,0
20.02.2020 14:00:00 11,4 5,9 35 19 59 32 SW 1013,2 30 0,0
20.02.2020 13:00:00 11,4 6,3 32 17 56 31 SW 1014,1 36 0,0
20.02.2020 12:00:00 10,5 6,4 34 19 61 33 SSW 1014,7 36 0,0
20.02.2020 11:00:00 9,6 5,9 33 18 50 27 SW 1015,5 45 0,0
20.02.2020 10:00:00 9,4 6,1 30 16 47 25 SW 1016,3 28 0,0
20.02.2020 09:00:00 9,0 5,9 28 15 42 23 SW 1016,4 59 0,0
20.02.2020 08:00:00 8,7 6,0 23 12 40 22 SW 1016,6 20 0,0
20.02.2020 07:00:00 8,5 6,1 24 13 40 22 SW 1016,8 18 0,2
20.02.2020 06:00:00 8,4 6,2 18 10 37 20 SW 1017,4 15 0,0
20.02.2020 05:00:00 8,6 6,2 22 12 39 21 SW 1017,5 59 0,0
20.02.2020 04:00:00 8,6 6,4 26 14 43 23 SW 1018,0 60 0,0
20.02.2020 03:00:00 8,5 6,3 24 13 44 24 SW 1018,6 47 0,0
20.02.2020 02:00:00 8,8 6,2 24 13 44 24 SW 1019,3 48 0,0
20.02.2020 01:00:00 8,7 6,5 24 13 37 20 SW 1019,8 38 0,0
20.02.2020 00:00:00 8,8 6,4 22 12 36 19 SW 1020,3 41 0,0
19.02.2020 23:00:00 9,0 6,3 24 13 37 20 WSW 1020,9 58 0,0
19.02.2020 22:00:00 9,0 7,0 21 12 32 17 SW 1021,4 39 0,0
19.02.2020 21:00:00 8,8 7,4 18 10 37 20 SW 1021,7 19 0,0
19.02.2020 20:00:00 8,9 7,5 16 9 32 18 SW 1022,3 19 0,0
19.02.2020 19:00:00 8,9 7,5 18 10 31 17 SW 1022,6 37 0,0
19.02.2020 18:00:00 8,8 7,4 19 10 29 16 SW 1023,0 20 0,0
19.02.2020 17:00:00 8,4 7,6 22 12 41 22 WSW 1023,6 16 0,0
19.02.2020 16:00:00 8,6 6,4 19 10 30 16 SW 1024,1 17 0,0
19.02.2020 15:00:00 8,4 7,0 19 11 29 15 WSW 1024,7 11 0,2
19.02.2020 14:00:00 8,5 6,3 18 10 32 18 WSW 1025,2 14 0,0
19.02.2020 13:00:00 8,3 5,6 21 11 40 22 W 1025,7 13 0,0
19.02.2020 12:00:00 8,9 5,6 26 14 42 23 W 1025,8 16 0,0
19.02.2020 11:00:00 8,5 5,6 24 13 38 20 W 1025,8 16 0,0
19.02.2020 10:00:00 7,9 4,5 27 15 46 25 W 1025,5 19 0,0
19.02.2020 09:00:00 7,5 3,2 25 14 42 23 WNW 1025,2 40 0,0
19.02.2020 08:00:00 7,4 2,5 26 14 48 26 WNW 1024,6 40 0,0
19.02.2020 07:00:00 7,4 2,7 29 16 55 30 NW 1024,2 40 0,0
19.02.2020 06:00:00 7,2 2,1 32 17 53 29 NW 1023,6 42 0,0
19.02.2020 05:00:00 7,3 2,8 32 17 54 29 WNW 1022,8 20 0,0
19.02.2020 04:00:00 7,5 3,7 35 19 59 32 WNW 1022,5 31 0,0
19.02.2020 03:00:00 7,4 4,5 29 16 52 28 WNW 1021,9 20 0,0
19.02.2020 02:00:00 7,0 4,6 31 17 56 31 WNW 1021,4 17 0,2
19.02.2020 01:00:00 6,9 3,7 47 25 79 42 NW 1020,8 12 0,0
19.02.2020 00:00:00 7,7 6,0 35 19 81 44 W 1020,4 18 1,4
18.02.2020 23:00:00 7,0 5,5 42 23 86 46 W 1020,6 8 3,2
18.02.2020 22:00:00 8,7 5,3 35 19 54 29 WSW 1020,6 47 0,0
18.02.2020 21:00:00 8,8 4,8 31 17 53 29 SW 1021,5 51 0,0
18.02.2020 20:00:00 8,9 4,9 31 17 49 26 SW 1022,4 52 0,0

tt = Température de l'air
td = dewpoint
ff = Vitesse du vent
fx = gusts
dd = Direction du vent
ppp = reduced air pressure
vv = visibility
rr = Quantités de précipitations

stations d'obs. à proximité